QPF
0.00 0.00 0.00 0.00 0.00 0.00 0.00 0.00 0.00 0.00 0.00 0.00 0.00 0.00 0.00 0.00 0.00 0.00 0.00 0.00 0.00 0.00 0.00 0.00 0.00 0.00 0.00 0.00 0.00 0.00 0.00 0.00
0.00 0.00 0.00 0.00 0.00 0.00 0.00 0.00 0.00 0.00 0.00 0.00 0.00 0.00 0.00 0.00 0.00 0.00 0.00 0.00 0.00 0.00 0.00 0.00 0.00 0.00 0.00 0.00 0.00 0.00 0.00 0.00
0.00 0.00 0.00 0.00 0.00 0.00 0.00 0.00 0.00 0.00 0.00 0.00 0.00 0.00 0.00 0.00 0.00 0.00 0.00 0.00 0.00 0.00 0.00 0.00 0.00 0.00 0.00 0.00 0.00 0.00 0.00 0.00
0.00 0.00 0.00 0.00 0.00 0.00 0.00 0.00 0.00 0.00 0.00 0.00 0.00 0.00 0.00 0.00 0.00 0.00 0.00 0.00 0.00 0.00 0.00 0.00 0.00 0.00 0.00 0.00 0.00 0.00 0.00 0.00
0.00 0.00 0.00 0.00 0.00 0.00 0.00 0.00 0.00 0.00 0.00 0.00 0.00 0.00 0.00 0.00 0.00 0.00 0.00 0.00 0.00 0.00 0.00 0.00 0.00 0.00 0.00 0.00 0.00 0.00 0.00 0.00
0.00 0.00 0.00 0.00 0.00 0.00 0.00 0.00 0.00 0.00 0.00 0.00 0.00 0.00 0.00 0.00 0.00 0.00 0.00 0.00 0.00 0.00 0.00 0.00 0.00 0.00 0.00 0.00 0.00 0.00 0.00 0.00
0.00 0.00 0.00 0.00 0.00 0.00 0.00 0.00 0.00 0.00 0.00 0.00 0.00 0.00 0.00 0.00 0.00 0.00 0.00 0.00 0.00 0.01 0.00 0.00 0.01 0.01 0.00 0.00 0.00 0.00 0.00 0.00
0.00 0.00 0.00 0.00 0.00 0.00 0.00 0.00 0.00 0.00 0.00 0.00 0.00 0.00 0.00 0.00 0.00 0.00 0.00 0.00 0.00 0.01 0.01 0.02 0.02 0.03 0.04 0.02 0.00 0.00 0.00 0.00
0.00 0.00 0.00 0.00 0.00 0.00 0.00 0.00 0.00 0.00 0.00 0.00 0.00 0.00 0.00 0.00 0.00 0.00 0.00 0.00 0.00 0.00 0.00 0.00 0.02 0.04 0.05 0.07 0.07 0.02 0.01 0.00
0.00 0.00 0.00 0.00 0.00 0.00 0.00 0.00 0.00 0.00 0.00 0.00 0.00 0.00 0.00 0.00 0.00 0.00 0.00 0.00 0.00 0.00 0.00 0.00 0.01 0.02 0.06 0.06 0.07 0.07 0.07 0.03
0.00 0.00 0.00 0.00 0.00 0.00 0.00 0.00 0.00 0.00 0.00 0.00 0.00 0.00 0.00 0.00 0.00 0.00 0.00 0.00 0.00 0.00 0.00 0.01 0.03 0.03 0.03 0.04 0.04 0.05 0.07 0.06
0.00 0.00 0.00 0.00 0.00 0.00 0.00 0.00 0.00 0.00 0.00 0.00 0.00 0.00 0.00 0.00 0.00 0.00 0.00 0.00 0.00 0.00 0.00 0.00 0.01 0.02 0.04 0.06 0.06 0.07 0.07 0.06
0.00 0.00 0.00 0.00 0.00 0.00 0.00 0.00 0.00 0.00 0.00 0.00 0.00 0.00 0.00 0.00 0.00 0.00 0.00 0.00 0.00 0.00 0.00 0.00 0.00 0.00 0.00 0.01 0.03 0.05 0.05 0.04
0.00 0.00 0.00 0.00 0.00 0.00 0.00 0.00 0.00 0.00 0.00 0.00 0.00 0.00 0.00 0.00 0.00 0.00 0.00 0.00 0.00 0.00 0.00 0.00 0.00 0.00 0.00 0.00 0.00 0.00 0.01 0.03
0.00 0.00 0.00 0.00 0.00 0.00 0.00 0.00 0.00 0.00 0.00 0.00 0.00 0.00 0.00 0.00 0.00 0.00 0.00 0.00 0.00 0.00 0.00 0.00 0.00 0.00 0.00 0.00 0.00 0.00 0.00 0.00
0.00 0.00 0.00 0.00 0.00 0.00 0.00 0.00 0.00 0.00 0.00 0.00 0.00 0.00 0.00 0.00 0.00 0.00 0.00 0.00 0.00 0.00 0.00 0.00 0.00 0.00 0.00 0.00 0.00 0.00 0.00 0.00
0.00 0.00 0.00 0.00 0.00 0.00 0.00 0.00 0.00 0.00 0.00 0.00 0.00 0.00 0.00 0.00 0.00 0.00 0.00 0.00 0.00 0.00 0.00 0.00 0.00 0.00 0.00 0.00 0.00 0.00 0.00 0.00
0.00 0.00 0.00 0.00 0.00 0.00 0.00 0.00 0.00 0.00 0.00 0.00 0.00 0.00 0.00 0.00 0.00 0.00 0.00 0.00 0.00 0.00 0.00 0.00 0.00 0.00 0.00 0.00 0.00 0.00 0.00 0.00
0.00 0.00 0.00 0.00 0.00 0.00 0.00 0.00 0.00 0.00 0.00 0.00 0.00 0.00 0.00 0.00 0.00 0.00 0.00 0.00 0.00 0.00 0.00 0.00 0.00 0.00 0.00 0.00 0.00 0.00 0.00 0.00
MSLP
1016.85 1017.30 1017.41 1017.20 1017.02 1016.79 1016.48 1016.30 1016.11 1015.77 1015.31 1015.10 1014.11 1013.89 1013.83 1013.85 1013.98 1014.08 1014.28 1014.46 1014.84 1015.22 1015.46 1015.54 1015.50 1015.62 1015.57 1015.58 1015.65 1015.78 1016.05 1016.18
1017.57 1018.15 1018.44 1018.24 1017.83 1017.61 1017.58 1017.37 1017.47 1016.95 1016.70 1016.50 1015.77 1015.80 1014.81 1013.78 1013.41 1013.72 1013.98 1013.83 1014.06 1014.56 1014.83 1015.08 1015.20 1015.21 1015.15 1015.30 1015.38 1015.49 1015.51 1015.45
1017.99 1018.51 1018.94 1019.05 1018.92 1018.95 1018.87 1018.68 1018.62 1018.38 1018.10 1018.04 1017.58 1016.88 1016.21 1015.20 1014.17 1013.55 1013.21 1013.39 1013.65 1013.79 1014.24 1014.54 1014.80 1014.92 1014.77 1014.69 1014.82 1015.01 1014.98 1015.08
1018.36 1018.96 1019.48 1019.75 1019.88 1019.89 1019.76 1019.98 1019.80 1019.77 1019.20 1018.50 1017.90 1017.24 1017.01 1016.77 1016.61 1016.06 1015.08 1012.88 1012.98 1013.16 1013.41 1013.82 1014.18 1014.42 1014.29 1014.28 1014.15 1014.26 1014.22 1014.30
1018.90 1019.34 1019.83 1020.34 1020.75 1020.89 1020.61 1020.59 1020.63 1020.66 1020.34 1019.91 1019.37 1019.26 1019.34 1019.41 1018.78 1018.11 1016.70 1016.15 1014.76 1012.49 1012.49 1012.63 1013.17 1013.59 1013.65 1013.58 1013.62 1013.54 1013.76 1013.56
1019.26 1019.71 1020.29 1020.78 1021.24 1021.32 1021.28 1021.24 1021.25 1021.35 1021.21 1020.94 1020.82 1020.57 1020.16 1019.45 1019.12 1018.55 1017.54 1016.73 1016.34 1016.20 1015.45 1013.49 1012.33 1012.65 1012.75 1012.84 1012.77 1012.77 1012.78 1012.86
1019.63 1019.98 1020.40 1021.01 1021.61 1021.79 1021.82 1021.57 1021.66 1021.71 1021.67 1021.57 1021.38 1021.28 1020.97 1020.33 1019.51 1018.81 1018.10 1017.43 1017.17 1017.02 1016.28 1015.77 1014.70 1012.77 1011.55 1011.67 1011.83 1011.77 1011.72 1011.79
1019.83 1020.23 1020.67 1021.16 1021.68 1022.08 1022.20 1022.21 1022.01 1022.04 1021.99 1021.90 1021.88 1021.68 1021.40 1021.28 1020.67 1020.05 1019.29 1018.72 1017.77 1017.25 1017.08 1015.92 1015.53 1014.61 1013.01 1010.94 1010.52 1010.76 1010.78 1010.63
1019.84 1020.32 1020.82 1021.22 1021.64 1022.04 1022.32 1022.35 1022.31 1022.41 1022.31 1022.19 1022.12 1022.00 1021.95 1021.64 1021.29 1020.97 1020.40 1019.39 1018.69 1018.16 1017.36 1016.62 1016.05 1014.68 1013.80 1012.46 1010.15 1009.44 1009.51 1009.47
1019.87 1020.25 1020.84 1021.28 1021.59 1021.86 1022.11 1022.24 1022.29 1022.35 1022.40 1022.29 1022.20 1022.19 1022.02 1022.04 1021.74 1021.17 1020.88 1020.29 1018.92 1018.03 1018.47 1016.57 1015.87 1014.84 1013.69 1013.42 1011.62 1010.31 1008.92 1008.49
1019.64 1020.11 1020.75 1021.19 1021.55 1021.84 1022.08 1022.21 1022.29 1022.30 1022.26 1022.02 1021.98 1022.01 1022.04 1021.98 1021.69 1021.37 1021.10 1020.31 1019.74 1018.83 1017.55 1017.34 1016.91 1014.52 1014.34 1014.09 1012.69 1012.06 1010.69 1008.30
1019.66 1020.21 1020.68 1021.14 1021.61 1021.96 1022.08 1022.14 1022.24 1022.20 1022.08 1021.94 1021.82 1021.72 1021.59 1021.49 1021.38 1021.18 1020.85 1020.36 1019.50 1019.00 1017.79 1017.47 1016.36 1015.70 1014.78 1013.85 1013.19 1012.49 1011.17 1010.47
1019.76 1020.22 1020.71 1021.22 1021.70 1022.05 1022.22 1022.24 1022.26 1022.21 1022.05 1021.80 1021.60 1021.50 1021.43 1021.25 1020.93 1020.59 1020.34 1019.95 1019.60 1018.79 1018.46 1016.97 1016.96 1016.16 1014.82 1014.56 1014.70 1013.52 1011.41 1011.17
1019.67 1020.22 1020.81 1021.29 1021.78 1022.18 1022.32 1022.34 1022.34 1022.20 1021.97 1021.76 1021.49 1021.34 1021.19 1020.94 1020.63 1020.21 1019.87 1019.41 1019.00 1018.48 1017.72 1017.60 1017.24 1016.20 1014.31 1014.21 1012.96 1012.05 1011.06 1011.42
1019.66 1020.30 1020.92 1021.44 1021.85 1022.27 1022.41 1022.42 1022.42 1022.32 1022.02 1021.81 1021.52 1021.34 1021.13 1020.80 1020.39 1020.03 1019.49 1018.92 1018.22 1017.99 1017.49 1017.39 1016.82 1016.20 1015.29 1014.38 1013.81 1013.10 1011.25 1011.61
1019.65 1020.36 1021.01 1021.53 1021.95 1022.28 1022.44 1022.48 1022.46 1022.30 1022.00 1021.85 1021.56 1021.39 1021.12 1020.76 1020.30 1019.76 1019.19 1018.60 1018.25 1017.74 1017.03 1016.70 1016.25 1015.50 1014.50 1014.89 1013.62 1013.41 1011.88 1010.57
1019.82 1020.50 1021.15 1021.66 1022.06 1022.25 1022.39 1022.58 1022.49 1022.24 1022.05 1021.81 1021.65 1021.47 1021.17 1020.82 1020.33 1019.73 1019.18 1018.62 1018.13 1017.51 1016.86 1016.25 1015.42 1014.99 1014.35 1013.54 1014.52 1013.29 1012.21 1009.36
1020.21 1020.87 1021.45 1021.90 1022.13 1022.26 1022.46 1022.53 1022.40 1022.26 1022.12 1021.98 1021.89 1021.66 1021.26 1020.78 1020.23 1019.75 1019.19 1018.56 1017.95 1017.47 1016.93 1016.25 1015.55 1014.88 1014.34 1013.86 1012.84 1012.79 1011.51 1010.58
1020.61 1021.24 1021.73 1022.10 1022.20 1022.37 1022.62 1022.58 1022.46 1022.40 1022.27 1022.31 1022.11 1021.83 1021.32 1020.83 1020.36 1019.82 1019.36 1018.77 1018.03 1017.33 1016.73 1016.10 1015.34 1014.51 1013.78 1013.06 1012.64 1012.32 1010.92 1010.52
Thickness
5698 5700 5703 5707 5710 5713 5718 5721 5723 5727 5731 5734 5743 5746 5747 5747 5747 5746 5744 5743 5740 5736 5733 5730 5730 5730 5731 5730 5730 5730 5728 5726
5685 5684 5684 5689 5695 5697 5699 5702 5703 5709 5710 5712 5719 5720 5734 5743 5744 5742 5740 5742 5741 5736 5733 5731 5728 5728 5728 5727 5725 5722 5724 5726
5671 5671 5671 5671 5676 5676 5678 5681 5684 5688 5691 5691 5697 5704 5711 5719 5728 5733 5737 5737 5735 5734 5730 5728 5726 5725 5726 5726 5723 5720 5720 5719
5658 5657 5655 5656 5657 5658 5660 5660 5662 5663 5670 5678 5683 5689 5692 5695 5697 5702 5712 5730 5730 5728 5726 5724 5722 5721 5722 5722 5723 5719 5716 5716
5646 5645 5643 5640 5638 5639 5642 5642 5643 5644 5648 5653 5658 5659 5658 5660 5667 5674 5689 5693 5704 5722 5723 5722 5721 5719 5719 5720 5719 5718 5715 5714
5634 5634 5630 5628 5624 5624 5625 5625 5624 5624 5626 5629 5631 5634 5638 5645 5649 5657 5667 5674 5679 5682 5689 5705 5718 5716 5716 5716 5716 5715 5714 5712
5625 5624 5621 5617 5612 5609 5608 5610 5608 5607 5607 5607 5610 5611 5614 5621 5630 5637 5645 5652 5656 5658 5668 5674 5686 5706 5716 5716 5715 5714 5714 5714
5615 5612 5610 5606 5601 5595 5594 5592 5592 5590 5588 5588 5588 5589 5591 5593 5600 5607 5617 5624 5633 5638 5643 5656 5663 5673 5689 5709 5711 5709 5710 5711
5608 5605 5600 5597 5592 5587 5582 5581 5579 5575 5574 5572 5568 5566 5566 5569 5573 5578 5585 5596 5606 5612 5617 5629 5638 5653 5664 5677 5700 5707 5706 5707
5601 5599 5593 5588 5584 5580 5576 5572 5569 5565 5563 5560 5556 5552 5549 5545 5547 5553 5558 5566 5580 5591 5590 5609 5615 5631 5644 5650 5668 5682 5694 5699
5596 5592 5586 5582 5577 5573 5567 5563 5559 5556 5554 5551 5547 5543 5537 5532 5532 5532 5534 5541 5548 5560 5575 5581 5587 5610 5614 5622 5636 5646 5660 5685
5588 5584 5580 5574 5568 5563 5560 5556 5552 5548 5545 5543 5539 5535 5530 5526 5523 5523 5524 5526 5530 5533 5548 5557 5571 5577 5591 5605 5610 5618 5635 5644
5581 5577 5573 5566 5560 5555 5551 5548 5543 5539 5538 5536 5532 5527 5522 5518 5516 5513 5514 5517 5517 5520 5522 5536 5543 5554 5566 5575 5564 5575 5608 5602
5574 5570 5563 5559 5552 5546 5541 5538 5535 5532 5530 5528 5526 5522 5516 5511 5508 5505 5503 5505 5507 5509 5511 5510 5515 5527 5549 5552 5567 5578 5587 5591
5569 5562 5556 5550 5544 5538 5533 5529 5525 5522 5520 5518 5516 5512 5508 5504 5502 5499 5498 5497 5499 5497 5498 5495 5499 5504 5516 5527 5536 5546 5563 5565
5563 5556 5549 5543 5536 5530 5525 5522 5517 5514 5512 5509 5507 5503 5498 5495 5492 5490 5489 5488 5486 5484 5484 5484 5488 5495 5504 5499 5514 5520 5536 5551
5555 5548 5541 5534 5528 5523 5518 5512 5509 5507 5504 5502 5498 5492 5488 5485 5482 5481 5479 5476 5472 5472 5472 5472 5477 5479 5484 5493 5483 5500 5510 5538
5544 5537 5531 5525 5520 5516 5510 5505 5501 5498 5495 5491 5487 5482 5479 5476 5474 5471 5467 5464 5461 5458 5455 5455 5458 5458 5461 5466 5477 5479 5492 5502
5533 5527 5521 5515 5511 5507 5500 5496 5492 5487 5484 5478 5474 5470 5468 5464 5460 5458 5455 5452 5447 5443 5441 5440 5443 5446 5448 5453 5457 5461 5477 5480